Location: Nashville
(36.1660°N, 86.7840°W)
Time: 12:08:44
(UTC-05:00)

EO-79 - Visible Passes

Search period start: 17 May 2022 00:00
Search period end: 27 May 2022 00:00
Orbit: 588 x 606 km, 98.0° (Epoch: 17 May)

Date Brightness Start Highest point End Pass type
(mag) Time Alt. Az. Time Alt. Az. Time Alt. Az.
17 May ? 01:22:36 10° ENE 01:22:59 11° ENE 01:22:59 11° ENE visible
17 May ? 02:57:01 10° N 02:59:41 30° NW 02:59:41 30° NW visible
18 May ? 01:32:10 10° NE 01:33:16 15° ENE 01:33:16 15° ENE visible
18 May ? 03:07:20 10° NNW 03:09:57 25° NW 03:09:57 25° NW visible
19 May ? 01:41:55 10° NE 01:43:33 19° ENE 01:43:33 19° ENE visible
19 May ? 03:17:44 10° NNW 03:20:14 20° NW 03:20:14 20° NW visible
20 May ? 01:51:45 10° NNE 01:53:48 24° NE 01:53:48 24° NE visible
20 May ? 03:28:15 10° NNW 03:30:29 16° WNW 03:30:29 16° WNW visible
21 May ? 02:01:40 10° NNE 02:04:03 30° NE 02:04:03 30° NE visible
21 May ? 03:39:00 10° NW 03:40:44 13° WNW 03:40:44 13° WNW visible
22 May ? 02:11:39 10° NNE 02:14:18 37° NE 02:14:18 37° NE visible
23 May ? 02:21:40 10° NNE 02:24:32 43° NNE 02:24:32 43° NNE visible
24 May ? 02:31:44 10° N 02:34:45 46° N 02:34:45 46° N visible
25 May ? 02:41:51 10° N 02:44:58 44° NNW 02:44:58 44° NNW visible
26 May ? 01:18:10 10° ENE 01:18:30 11° ENE 01:18:30 11° ENE visible
26 May ? 02:52:01 10° N 02:55:10 37° NW 02:55:10 37° NW visible
